| time (UTC) | temp C | wind direction | speed KPH | gust KPH | rain 1hr cm | rain 24hr cm | rain mn cm | humidity % | barometer mb |
| 20260505194434 | 29 | 202 | 14.5 | 20.9 | 0.00 | 0.00 | 0.00 | 66 | 1005.4 |
| 20260505193934 | 30 | 222 | 9.7 | 11.3 | 0.00 | 0.00 | 0.00 | 67 | 1005.4 |
| 20260505193432 | 30 | 181 | 8.0 | 11.3 | 0.00 | 0.00 | 0.00 | 66 | 1005.5 |
| 20260505192930 | 29 | 173 | 11.3 | 14.5 | 0.00 | 0.00 | 0.00 | 67 | 1005.5 |
| 20260505192428 | 28 | 168 | 11.3 | 16.1 | 0.00 | 0.00 | 0.00 | 67 | 1005.3 |
| 20260505191925 | 29 | 168 | 12.9 | 14.5 | 0.00 | 0.00 | 0.00 | 67 | 1005.5 |
| 20260505191424 | 29 | 168 | 8.0 | 11.3 | 0.00 | 0.00 | 0.00 | 67 | 1005.6 |
| 20260505190920 | 29 | 185 | 8.0 | 11.3 | 0.00 | 0.00 | 0.00 | 66 | 1005.6 |
| 20260505190415 | 28 | 223 | 12.9 | 16.1 | 0.00 | 0.00 | 0.00 | 67 | 1005.6 |
| 20260505185911 | 29 | 81 | 11.3 | 16.1 | 0.00 | 0.00 | 0.00 | 67 | 1005.8 |
| 20260505185408 | 29 | 193 | 8.0 | 9.7 | 0.00 | 0.00 | 0.00 | 66 | 1005.9 |
| 20260505184904 | 28 | 232 | 9.7 | 12.9 | 0.00 | 0.00 | 0.00 | 67 | 1005.8 |
| 20260505184401 | 28 | 246 | 11.3 | 14.5 | 0.00 | 0.00 | 0.00 | 67 | 1006.0 |
| 20260505183858 | 28 | 205 | 16.1 | 17.7 | 0.00 | 0.00 | 0.00 | 68 | 1006.1 |
| 20260505183355 | 28 | 189 | 9.7 | 14.5 | 0.00 | 0.00 | 0.00 | 69 | 1006.1 |
| 20260505182852 | 27 | 239 | 11.3 | 16.1 | 0.00 | 0.00 | 0.00 | 70 | 1006.1 |
| 20260505182348 | 27 | 205 | 11.3 | 14.5 | 0.00 | 0.00 | 0.00 | 69 | 1005.9 |
| 20260505181845 | 27 | 173 | 11.3 | 14.5 | 0.00 | 0.00 | 0.00 | 69 | 1006.2 |
| 20260505181342 | 27 | 217 | 9.7 | 14.5 | 0.00 | 0.00 | 0.00 | 70 | 1006.0 |
| 20260505180839 | 27 | 201 | 8.0 | 11.3 | 0.00 | 0.00 | 0.00 | 69 | 1006.1 |
| 20260505180335 | 27 | 193 | 20.9 | 27.4 | 0.00 | 0.00 | 0.00 | 69 | 1006.0 |
| 20260505175832 | 27 | 242 | 14.5 | 17.7 | 0.00 | 0.00 | 0.00 | 71 | 1006.0 |
| 20260505175328 | 27 | 189 | 11.3 | 12.9 | 0.00 | 0.00 | 0.00 | 72 | 1005.8 |
| 20260505174825 | 27 | 195 | 12.9 | 24.1 | 0.00 | 0.00 | 0.00 | 72 | 1005.8 |
| 20260505174322 | 27 | 203 | 16.1 | 17.7 | 0.00 | 0.00 | 0.00 | 72 | 1006.0 |
| 20260505173818 | 27 | 193 | 6.4 | 11.3 | 0.00 | 0.00 | 0.00 | 71 | 1005.9 |
| 20260505173315 | 26 | 181 | 11.3 | 16.1 | 0.00 | 0.00 | 0.00 | 72 | 1006.2 |
| 20260505172813 | 26 | 172 | 19.3 | 25.7 | 0.00 | 0.00 | 0.00 | 71 | 1006.2 |
| 20260505172310 | 27 | 59 | 12.9 | 16.1 | 0.00 | 0.00 | 0.00 | 72 | 1006.0 |
| 20260505171804 | 26 | 204 | 8.0 | 9.7 | 0.00 | 0.00 | 0.00 | 72 | 1006.3 |
| 20260505171301 | 26 | 179 | 12.9 | 16.1 | 0.00 | 0.00 | 0.00 | 73 | 1006.0 |
| 20260505170757 | 26 | 187 | 6.4 | 11.3 | 0.00 | 0.00 | 0.00 | 73 | 1006.0 |
| 20260505170255 | 26 | 178 | 20.9 | 27.4 | 0.00 | 0.00 | 0.00 | 73 | 1006.1 |
| 20260505165749 | 26 | 246 | 14.5 | 17.7 | 0.00 | 0.00 | 0.00 | 73 | 1006.0 |
| 20260505165246 | 26 | 186 | 11.3 | 16.1 | 0.00 | 0.00 | 0.00 | 74 | 1005.9 |
| 20260505164741 | 26 | 211 | 11.3 | 16.1 | 0.00 | 0.00 | 0.00 | 73 | 1005.9 |
| 20260505164239 | 26 | 232 | 14.5 | 17.7 | 0.00 | 0.00 | 0.00 | 73 | 1006.2 |
| 20260505163737 | 26 | 187 | 11.3 | 12.9 | 0.00 | 0.00 | 0.00 | 73 | 1006.3 |
| 20260505163235 | 25 | 220 | 11.3 | 16.1 | 0.00 | 0.00 | 0.00 | 74 | 1006.2 |
| 20260505162732 | 26 | 202 | 11.3 | 16.1 | 0.00 | 0.00 | 0.00 | 74 | 1006.3 |
| 20260505162229 | 26 | 184 | 19.3 | 27.4 | 0.00 | 0.00 | 0.00 | 73 | 1005.9 |
| 20260505161726 | 25 | 239 | 12.9 | 16.1 | 0.00 | 0.00 | 0.00 | 74 | 1006.0 |
| 20260505161224 | 25 | 186 | 16.1 | 17.7 | 0.00 | 0.00 | 0.00 | 75 | 1006.1 |
| 20260505160721 | 25 | 179 | 9.7 | 14.5 | 0.00 | 0.00 | 0.00 | 75 | 1006.3 |
| 20260505160219 | 25 | 168 | 20.9 | 25.7 | 0.00 | 0.00 | 0.00 | 75 | 1006.1 |
| 20260505153157 | 24 | 186 | 16.1 | 22.5 | 0.00 | 0.00 | 0.00 | 78 | 1006.2 |
| 20260505152654 | 24 | 180 | 25.7 | 35.4 | 0.00 | 0.00 | 0.00 | 78 | 1006.1 |
| 20260505152150 | 24 | 233 | 12.9 | 17.7 | 0.00 | 0.00 | 0.00 | 78 | 1006.4 |
| 20260505151646 | 24 | 196 | 14.5 | 17.7 | 0.00 | 0.00 | 0.00 | 78 | 1006.2 |
| 20260505151143 | 23 | 183 | 16.1 | 20.9 | 0.00 | 0.00 | 0.00 | 78 | 1006.3 |
| 20260505150639 | 23 | 184 | 22.5 | 29.0 | 0.00 | 0.00 | 0.00 | 78 | 1006.6 |
| 20260505150137 | 23 | 198 | 12.9 | 16.1 | 0.00 | 0.00 | 0.00 | 79 | 1006.3 |
| 20260505140605 | 23 | 183 | 12.9 | 16.1 | 0.00 | 0.00 | 0.00 | 81 | 1006.0 |
| 20260505125018 | 21 | 139 | 11.3 | 16.1 | 0.00 | 0.00 | 0.00 | 85 | 1005.5 |
| 20260505124515 | 21 | 203 | 16.1 | 22.5 | 0.00 | 0.00 | 0.00 | 85 | 1005.5 |
| 20260505124011 | 21 | 157 | 12.9 | 12.9 | 0.00 | 0.00 | 0.00 | 85 | 1005.6 |
| 20260505123508 | 21 | 245 | 6.4 | 9.7 | 0.00 | 0.00 | 0.00 | 85 | 1005.4 |
| 20260505123004 | 21 | 199 | 20.9 | 24.1 | 0.00 | 0.00 | 0.00 | 85 | 1005.3 |
| 20260505122501 | 21 | 173 | 11.3 | 17.7 | 0.00 | 0.00 | 0.00 | 85 | 1005.2 |
| 20260505121958 | 21 | 173 | 11.3 | 14.5 | 0.00 | 0.00 | 0.00 | 85 | 1005.1 |
| 20260505121455 | 21 | 220 | 9.7 | 12.9 | 0.00 | 0.00 | 0.00 | 85 | 1005.1 |
| 20260505120951 | 21 | 198 | 14.5 | 20.9 | 0.00 | 0.00 | 0.00 | 85 | 1005.1 |
| 20260505120447 | 21 | 169 | 3.2 | 4.8 | 0.00 | 0.00 | 0.00 | 85 | 1005.3 |
| 20260505115946 | 21 | 207 | 14.5 | 24.1 | 0.00 | 0.00 | 0.00 | 85 | 1005.0 |
| 20260505115443 | 21 | 179 | 9.7 | 9.7 | 0.00 | 0.00 | 0.00 | 85 | 1005.1 |
| 20260505114941 | 21 | 185 | 8.0 | 14.5 | 0.00 | 0.00 | 0.00 | 85 | 1005.2 |
| 20260505114432 | 21 | 217 | 9.7 | 12.9 | 0.00 | 0.00 | 0.00 | 85 | 1005.0 |
| 20260505113929 | 21 | 199 | 11.3 | 14.5 | 0.00 | 0.00 | 0.00 | 85 | 1005.1 |
| 20260505113425 | 21 | 163 | 11.3 | 20.9 | 0.00 | 0.00 | 0.00 | 85 | 1005.0 |
| 20260505112921 | 21 | 205 | 12.9 | 16.1 | 0.00 | 0.00 | 0.00 | 85 | 1005.0 |
| 20260505112419 | 21 | 187 | 9.7 | 14.5 | 0.00 | 0.00 | 0.00 | 85 | 1005.2 |
| 20260505111915 | 21 | 169 | 11.3 | 17.7 | 0.00 | 0.00 | 0.00 | 85 | 1005.2 |
| 20260505111409 | 21 | 196 | 14.5 | 17.7 | 0.00 | 0.00 | 0.00 | 85 | 1005.1 |
| 20260505110906 | 21 | 166 | 12.9 | 17.7 | 0.00 | 0.00 | 0.00 | 85 | 1004.9 |
| 20260505110403 | 21 | 196 | 17.7 | 20.9 | 0.00 | 0.00 | 0.00 | 85 | 1004.7 |
| 20260505101833 | 21 | 179 | 9.7 | 14.5 | 0.00 | 0.00 | 0.00 | 85 | 1005.1 |
| 20260505101329 | 21 | 140 | 4.8 | 9.7 | 0.00 | 0.00 | 0.00 | 85 | 1004.9 |
| 20260505100825 | 21 | 166 | 6.4 | 9.7 | 0.00 | 0.00 | 0.00 | 85 | 1005.0 |
| 20260505100321 | 21 | 230 | 14.5 | 14.5 | 0.00 | 0.00 | 0.00 | 84 | 1004.9 |
| 20260505095817 | 21 | 190 | 6.4 | 9.7 | 0.00 | 0.00 | 0.00 | 84 | 1004.9 |
| 20260505095315 | 21 | 208 | 6.4 | 8.0 | 0.00 | 0.00 | 0.00 | 84 | 1005.1 |
| 20260505094810 | 21 | 174 | 14.5 | 16.1 | 0.00 | 0.00 | 0.00 | 84 | 1005.2 |
| 20260505094308 | 21 | 180 | 19.3 | 24.1 | 0.00 | 0.00 | 0.00 | 84 | 1005.1 |
| 20260505093803 | 21 | 191 | 14.5 | 20.9 | 0.00 | 0.00 | 0.00 | 84 | 1005.4 |
| 20260505093301 | 21 | 211 | 9.7 | 11.3 | 0.00 | 0.00 | 0.00 | 84 | 1005.2 |
| 20260505092757 | 21 | 191 | 9.7 | 11.3 | 0.00 | 0.00 | 0.00 | 84 | 1005.5 |
| 20260505092256 | 21 | 181 | 14.5 | 17.7 | 0.00 | 0.00 | 0.00 | 84 | 1005.3 |
| 20260505091753 | 21 | 188 | 14.5 | 17.7 | 0.00 | 0.00 | 0.00 | 84 | 1005.3 |
| 20260505091251 | 21 | 152 | 8.0 | 11.3 | 0.00 | 0.00 | 0.00 | 84 | 1005.3 |
| 20260505090749 | 21 | 219 | 20.9 | 29.0 | 0.00 | 0.00 | 0.00 | 83 | 1005.1 |
| 20260505090247 | 21 | 212 | 12.9 | 14.5 | 0.00 | 0.00 | 0.00 | 83 | 1005.4 |
| 20260505085744 | 21 | 211 | 11.3 | 14.5 | 0.00 | 0.00 | 0.00 | 83 | 1005.3 |
| 20260505085242 | 21 | 159 | 19.3 | 25.7 | 0.00 | 0.00 | 0.00 | 83 | 1005.1 |
| 20260505084739 | 21 | 210 | 14.5 | 17.7 | 0.00 | 0.00 | 0.00 | 83 | 1005.2 |
| 20260505084238 | 21 | 198 | 9.7 | 11.3 | 0.00 | 0.00 | 0.00 | 83 | 1005.2 |
| 20260505083734 | 21 | 167 | 14.5 | 17.7 | 0.00 | 0.00 | 0.00 | 83 | 1005.2 |
| 20260505083231 | 21 | 211 | 17.7 | 27.4 | 0.00 | 0.00 | 0.00 | 83 | 1005.2 |
| 20260505082727 | 21 | 194 | 8.0 | 14.5 | 0.00 | 0.00 | 0.00 | 83 | 1005.4 |
| 20260505082225 | 21 | 207 | 8.0 | 11.3 | 0.00 | 0.00 | 0.00 | 83 | 1005.1 |
| 20260505081720 | 21 | 191 | 14.5 | 16.1 | 0.00 | 0.00 | 0.00 | 83 | 1005.5 |
| 20260505081218 | 21 | 182 | 9.7 | 12.9 | 0.00 | 0.00 | 0.00 | 83 | 1005.3 |
| 20260505080715 | 21 | 191 | 12.9 | 16.1 | 0.00 | 0.00 | 0.00 | 83 | 1005.4 |
| 20260505080210 | 21 | 140 | 19.3 | 24.1 | 0.00 | 0.00 | 0.00 | 83 | 1005.8 |
| 20260505075706 | 21 | 210 | 19.3 | 27.4 | 0.00 | 0.00 | 0.00 | 83 | 1005.7 |
| 20260505075204 | 21 | 175 | 11.3 | 16.1 | 0.00 | 0.00 | 0.00 | 84 | 1005.7 |
| 20260505074701 | 21 | 231 | 19.3 | 25.7 | 0.00 | 0.00 | 0.00 | 84 | 1005.8 |
| 20260505074157 | 21 | 195 | 9.7 | 11.3 | 0.00 | 0.00 | 0.00 | 84 | 1005.8 |
| 20260505073655 | 21 | 213 | 9.7 | 12.9 | 0.00 | 0.00 | 0.00 | 84 | 1006.1 |
| 20260505073153 | 21 | 202 | 8.0 | 14.5 | 0.00 | 0.00 | 0.00 | 84 | 1005.8 |
| 20260505072648 | 21 | 182 | 11.3 | 12.9 | 0.00 | 0.00 | 0.00 | 84 | 1006.2 |
| 20260505072145 | 21 | 122 | 11.3 | 17.7 | 0.00 | 0.00 | 0.00 | 83 | 1006.4 |
| 20260505071641 | 21 | 137 | 11.3 | 14.5 | 0.00 | 0.00 | 0.00 | 83 | 1006.3 |
| 20260505071139 | 21 | 170 | 14.5 | 17.7 | 0.00 | 0.00 | 0.00 | 83 | 1006.4 |
| 20260505070636 | 21 | 180 | 11.3 | 16.1 | 0.00 | 0.00 | 0.00 | 83 | 1006.4 |
| 20260505070132 | 21 | 128 | 8.0 | 11.3 | 0.00 | 0.00 | 0.00 | 83 | 1006.5 |
| 20260505065628 | 21 | 219 | 14.5 | 16.1 | 0.00 | 0.00 | 0.00 | 83 | 1006.5 |
| 20260505065125 | 21 | 77 | 12.9 | 22.5 | 0.00 | 0.00 | 0.00 | 83 | 1006.7 |
| 20260505064622 | 21 | 219 | 8.0 | 11.3 | 0.00 | 0.00 | 0.00 | 82 | 1006.8 |
| 20260505064120 | 21 | 169 | 9.7 | 12.9 | 0.00 | 0.00 | 0.00 | 82 | 1006.8 |
| 20260505063617 | 21 | 174 | 16.1 | 20.9 | 0.00 | 0.00 | 0.00 | 82 | 1006.7 |
| 20260505063113 | 21 | 259 | 16.1 | 22.5 | 0.00 | 0.00 | 0.00 | 82 | 1006.8 |
| 20260505062609 | 21 | 136 | 11.3 | 16.1 | 0.00 | 0.00 | 0.00 | 82 | 1006.9 |
| 20260505062107 | 21 | 243 | 9.7 | 12.9 | 0.00 | 0.00 | 0.00 | 81 | 1006.8 |
| 20260505061604 | 21 | 179 | 12.9 | 16.1 | 0.00 | 0.00 | 0.00 | 81 | 1006.7 |
| 20260505061102 | 21 | 203 | 16.1 | 20.9 | 0.00 | 0.00 | 0.00 | 81 | 1006.8 |
| 20260505060559 | 21 | 184 | 12.9 | 16.1 | 0.00 | 0.00 | 0.00 | 81 | 1006.7 |
| 20260505060056 | 21 | 221 | 14.5 | 24.1 | 0.00 | 0.00 | 0.00 | 81 | 1006.7 |
| 20260505055551 | 21 | 199 | 8.0 | 11.3 | 0.00 | 0.00 | 0.00 | 81 | 1006.8 |
| 20260505055048 | 21 | 169 | 14.5 | 17.7 | 0.00 | 0.00 | 0.00 | 81 | 1006.7 |
| 20260505054545 | 21 | 246 | 11.3 | 16.1 | 0.00 | 0.00 | 0.00 | 80 | 1006.6 |
| 20260505054043 | 22 | 201 | 9.7 | 14.5 | 0.00 | 0.00 | 0.00 | 80 | 1006.9 |
| 20260505053540 | 22 | 180 | 8.0 | 11.3 | 0.00 | 0.00 | 0.00 | 80 | 1007.1 |
| 20260505053037 | 22 | 197 | 17.7 | 20.9 | 0.00 | 0.00 | 0.00 | 80 | 1007.0 |
| 20260505052534 | 22 | 187 | 12.9 | 14.5 | 0.00 | 0.00 | 0.00 | 79 | 1007.1 |
| 20260505052032 | 22 | 204 | 11.3 | 14.5 | 0.00 | 0.00 | 0.00 | 79 | 1007.0 |
| 20260505051528 | 22 | 198 | 11.3 | 12.9 | 0.00 | 0.00 | 0.00 | 79 | 1006.9 |
| 20260505051026 | 22 | 140 | 9.7 | 12.9 | 0.00 | 0.00 | 0.00 | 79 | 1007.0 |
| 20260505050524 | 22 | 184 | 9.7 | 16.1 | 0.00 | 0.00 | 0.00 | 79 | 1007.0 |
| 20260505041452 | 22 | 193 | 9.7 | 11.3 | 0.00 | 0.00 | 0.00 | 77 | 1007.4 |
| 20260505040949 | 22 | 197 | 8.0 | 12.9 | 0.00 | 0.00 | 0.00 | 77 | 1007.2 |
| 20260505040446 | 22 | 210 | 8.0 | 12.9 | 0.00 | 0.00 | 0.00 | 76 | 1007.3 |
| 20260505035943 | 22 | 176 | 9.7 | 11.3 | 0.00 | 0.00 | 0.00 | 76 | 1007.4 |
| 20260505035439 | 22 | 197 | 4.8 | 4.8 | 0.00 | 0.00 | 0.00 | 76 | 1007.2 |
| 20260505034936 | 22 | 203 | 8.0 | 11.3 | 0.00 | 0.00 | 0.00 | 76 | 1007.2 |
| 20260505034433 | 22 | 106 | 4.8 | 4.8 | 0.00 | 0.00 | 0.00 | 76 | 1007.3 |
| 20260505033930 | 22 | 129 | 4.8 | 4.8 | 0.00 | 0.00 | 0.00 | 76 | 1007.2 |
| 20260505033426 | 22 | 102 | 4.8 | 9.7 | 0.00 | 0.00 | 0.00 | 75 | 1007.2 |
| 20260505032925 | 22 | 154 | 6.4 | 8.0 | 0.00 | 0.00 | 0.00 | 75 | 1007.2 |
| 20260505032422 | 22 | 191 | 9.7 | 12.9 | 0.00 | 0.00 | 0.00 | 75 | 1007.2 |
| 20260505031918 | 22 | 150 | 9.7 | 12.9 | 0.00 | 0.00 | 0.00 | 75 | 1007.3 |
| 20260505031415 | 22 | 232 | 9.7 | 12.9 | 0.00 | 0.00 | 0.00 | 75 | 1007.6 |
| 20260505030912 | 22 | 181 | 4.8 | 8.0 | 0.00 | 0.00 | 0.00 | 75 | 1007.3 |
| 20260505030408 | 22 | 229 | 3.2 | 4.8 | 0.00 | 0.00 | 0.00 | 75 | 1007.4 |
| 20260505025903 | 22 | 164 | 4.8 | 4.8 | 0.00 | 0.00 | 0.00 | 75 | 1007.2 |
| 20260505025401 | 22 | 148 | 4.8 | 8.0 | 0.00 | 0.00 | 0.00 | 75 | 1007.0 |
| 20260505024900 | 22 | 187 | 6.4 | 8.0 | 0.00 | 0.00 | 0.00 | 75 | 1007.0 |
| 20260505024357 | 22 | 164 | 8.0 | 11.3 | 0.00 | 0.00 | 0.00 | 74 | 1006.9 |
| 20260505023854 | 22 | 146 | 8.0 | 11.3 | 0.00 | 0.00 | 0.00 | 74 | 1006.9 |
| 20260505023351 | 23 | 185 | 9.7 | 12.9 | 0.00 | 0.00 | 0.00 | 74 | 1007.0 |
| 20260505022848 | 23 | 178 | 3.2 | 4.8 | 0.00 | 0.00 | 0.00 | 74 | 1007.0 |
| 20260505022345 | 23 | 177 | 6.4 | 9.7 | 0.00 | 0.00 | 0.00 | 74 | 1007.0 |
| 20260505021842 | 23 | 284 | 8.0 | 11.3 | 0.00 | 0.00 | 0.00 | 73 | 1006.9 |
| 20260505021339 | 23 | 187 | 11.3 | 14.5 | 0.00 | 0.00 | 0.00 | 73 | 1006.7 |
| 20260505020834 | 23 | 81 | 3.2 | 4.8 | 0.00 | 0.00 | 0.00 | 73 | 1006.8 |
| 20260505020330 | 23 | 160 | 4.8 | 8.0 | 0.00 | 0.00 | 0.00 | 73 | 1006.7 |
| 20260505015827 | 23 | 192 | 4.8 | 4.8 | 0.00 | 0.00 | 0.00 | 72 | 1006.7 |
| 20260505015324 | 23 | 135 | 4.8 | 9.7 | 0.00 | 0.00 | 0.00 | 72 | 1007.0 |
| 20260505014822 | 23 | 152 | 4.8 | 11.3 | 0.00 | 0.00 | 0.00 | 72 | 1006.7 |
| 20260505014319 | 23 | 112 | 6.4 | 9.7 | 0.00 | 0.00 | 0.00 | 72 | 1006.9 |
| 20260505013815 | 23 | 147 | 4.8 | 8.0 | 0.00 | 0.00 | 0.00 | 71 | 1006.9 |
| 20260505013312 | 23 | 162 | 6.4 | 9.7 | 0.00 | 0.00 | 0.00 | 70 | 1006.8 |
| 20260505012811 | 23 | 135 | 6.4 | 12.9 | 0.00 | 0.00 | 0.00 | 70 | 1006.9 |
| 20260505012308 | 23 | 209 | 6.4 | 11.3 | 0.00 | 0.00 | 0.00 | 69 | 1006.9 |
| 20260505011804 | 23 | 92 | 8.0 | 9.7 | 0.00 | 0.00 | 0.00 | 69 | 1006.7 |
| 20260505011301 | 23 | 175 | 4.8 | 8.0 | 0.00 | 0.00 | 0.00 | 70 | 1006.6 |
| 20260505010757 | 24 | 163 | 12.9 | 14.5 | 0.00 | 0.00 | 0.00 | 70 | 1006.7 |
| 20260505010253 | 24 | 179 | 6.4 | 8.0 | 0.00 | 0.00 | 0.00 | 70 | 1006.7 |
| 20260505005749 | 24 | 174 | 8.0 | 9.7 | 0.00 | 0.00 | 0.00 | 69 | 1006.8 |
| 20260505005246 | 24 | 237 | 4.8 | 8.0 | 0.00 | 0.00 | 0.00 | 68 | 1006.8 |
| 20260505004744 | 25 | 139 | 16.1 | 25.7 | 0.00 | 0.00 | 0.00 | 68 | 1006.7 |
| 20260505004240 | 25 | 219 | 17.7 | 20.9 | 0.00 | 0.00 | 0.00 | 67 | 1006.9 |
| 20260505003737 | 25 | 190 | 9.7 | 12.9 | 0.00 | 0.00 | 0.00 | 67 | 1006.9 |
| 20260505003235 | 25 | 186 | 11.3 | 14.5 | 0.00 | 0.00 | 0.00 | 67 | 1007.0 |
| 20260505002731 | 25 | 160 | 11.3 | 12.9 | 0.00 | 0.00 | 0.00 | 67 | 1007.1 |
| 20260505002228 | 25 | 205 | 6.4 | 9.7 | 0.00 | 0.00 | 0.00 | 66 | 1007.1 |
| 20260505001726 | 25 | 174 | 8.0 | 11.3 | 0.00 | 0.00 | 0.00 | 66 | 1007.2 |
| 20260505001223 | 25 | 216 | 6.4 | 9.7 | 0.00 | 0.00 | 0.00 | 66 | 1007.4 |
| 20260505000720 | 25 | 139 | 12.9 | 17.7 | 0.00 | 0.00 | 0.00 | 65 | 1007.3 |
| 20260505000219 | 25 | 180 | 17.7 | 22.5 | 0.00 | 0.00 | 0.00 | 65 | 1007.2 |
| 20260504235714 | 25 | 225 | 8.0 | 11.3 | 0.00 | 0.00 | 0.00 | 65 | 1007.1 |
| 20260504235210 | 25 | 195 | 14.5 | 22.5 | 0.00 | 0.00 | 0.00 | 64 | 1007.2 |
| 20260504234708 | 25 | 204 | 11.3 | 16.1 | 0.00 | 0.00 | 0.00 | 64 | 1007.1 |
| 20260504234205 | 26 | 226 | 8.0 | 11.3 | 0.00 | 0.00 | 0.00 | 63 | 1007.3 |
| 20260504233701 | 26 | 104 | 20.9 | 25.7 | 0.00 | 0.00 | 0.00 | 63 | 1007.5 |
| 20260504233157 | 26 | 130 | 11.3 | 16.1 | 0.00 | 0.00 | 0.00 | 63 | 1007.3 |
| 20260504232654 | 26 | 192 | 9.7 | 14.5 | 0.00 | 0.00 | 0.00 | 63 | 1007.5 |
| 20260504232151 | 26 | 197 | 20.9 | 24.1 | 0.00 | 0.00 | 0.00 | 62 | 1007.6 |
| 20260504231648 | 26 | 205 | 20.9 | 24.1 | 0.00 | 0.00 | 0.00 | 62 | 1007.5 |
| 20260504231144 | 26 | 174 | 11.3 | 16.1 | 0.00 | 0.00 | 0.00 | 62 | 1007.3 |
| 20260504230641 | 26 | 183 | 16.1 | 20.9 | 0.00 | 0.00 | 0.00 | 62 | 1007.6 |
| 20260504230140 | 26 | 179 | 16.1 | 20.9 | 0.00 | 0.00 | 0.00 | 62 | 1007.7 |
| 20260504225638 | 26 | 183 | 9.7 | 12.9 | 0.00 | 0.00 | 0.00 | 61 | 1007.8 |
| 20260504225133 | 26 | 202 | 12.9 | 14.5 | 0.00 | 0.00 | 0.00 | 61 | 1007.6 |
| 20260504224630 | 26 | 224 | 14.5 | 16.1 | 0.00 | 0.00 | 0.00 | 61 | 1007.8 |
| 20260504224127 | 26 | 163 | 17.7 | 22.5 | 0.00 | 0.00 | 0.00 | 60 | 1007.8 |
| 20260504223624 | 27 | 178 | 11.3 | 14.5 | 0.00 | 0.00 | 0.00 | 60 | 1008.1 |
| 20260504223120 | 26 | 238 | 8.0 | 12.9 | 0.00 | 0.00 | 0.00 | 61 | 1007.9 |
| 20260504222617 | 26 | 194 | 17.7 | 22.5 | 0.00 | 0.00 | 0.00 | 60 | 1007.8 |
| 20260504222114 | 26 | 197 | 6.4 | 9.7 | 0.00 | 0.00 | 0.00 | 61 | 1007.9 |
| 20260504221611 | 26 | 251 | 17.7 | 20.9 | 0.00 | 0.00 | 0.00 | 61 | 1007.8 |
| 20260504221108 | 26 | 209 | 11.3 | 14.5 | 0.00 | 0.00 | 0.00 | 60 | 1007.9 |
| 20260504220604 | 26 | 177 | 16.1 | 20.9 | 0.00 | 0.00 | 0.00 | 61 | 1008.1 |
| 20260504215558 | 26 | 351 | 16.1 | 20.9 | 0.00 | 0.00 | 0.00 | 59 | 1008.2 |
| 20260504215056 | 26 | 170 | 20.9 | 25.7 | 0.00 | 0.00 | 0.00 | 59 | 1008.1 |
| 20260504214551 | 27 | 199 | 11.3 | 14.5 | 0.00 | 0.00 | 0.00 | 59 | 1008.2 |
| 20260504214048 | 26 | 42 | 17.7 | 22.5 | 0.00 | 0.00 | 0.00 | 59 | 1008.2 |
| 20260504213544 | 26 | 312 | 12.9 | 17.7 | 0.00 | 0.00 | 0.00 | 59 | 1008.4 |
| 20260504213042 | 26 | 116 | 19.3 | 22.5 | 0.00 | 0.00 | 0.00 | 60 | 1008.6 |
| 20260504212537 | 27 | 202 | 14.5 | 22.5 | 0.00 | 0.00 | 0.00 | 58 | 1008.6 |
| 20260504212035 | 27 | 169 | 14.5 | 20.9 | 0.00 | 0.00 | 0.00 | 59 | 1008.6 |
| 20260504211532 | 27 | 206 | 8.0 | 12.9 | 0.00 | 0.00 | 0.00 | 58 | 1008.6 |
| 20260504211029 | 27 | 182 | 14.5 | 17.7 | 0.00 | 0.00 | 0.00 | 58 | 1008.6 |
| 20260504210526 | 27 | 177 | 14.5 | 20.9 | 0.00 | 0.00 | 0.00 | 57 | 1008.8 |
| 20260504210022 | 27 | 203 | 11.3 | 12.9 | 0.00 | 0.00 | 0.00 | 58 | 1008.9 |
| 20260504205520 | 27 | 325 | 12.9 | 17.7 | 0.00 | 0.00 | 0.00 | 58 | 1008.8 |
| 20260504205018 | 27 | 206 | 16.1 | 20.9 | 0.00 | 0.00 | 0.00 | 58 | 1009.0 |
| 20260504204516 | 27 | 152 | 9.7 | 11.3 | 0.00 | 0.00 | 0.00 | 59 | 1009.2 |
| 20260504204015 | 26 | 243 | 8.0 | 9.7 | 0.00 | 0.00 | 0.00 | 60 | 1009.4 |
| 20260504203512 | 26 | 196 | 12.9 | 14.5 | 0.00 | 0.00 | 0.00 | 59 | 1009.6 |
| 20260504203009 | 27 | 206 | 24.1 | 29.0 | 0.00 | 0.00 | 0.00 | 57 | 1009.7 |
| 20260504202505 | 27 | 187 | 9.7 | 14.5 | 0.00 | 0.00 | 0.00 | 57 | 1009.8 |
| 20260504202002 | 27 | 179 | 14.5 | 20.9 | 0.00 | 0.00 | 0.00 | 57 | 1009.8 |
| 20260504201459 | 27 | 186 | 14.5 | 16.1 | 0.00 | 0.00 | 0.00 | 58 | 1010.0 |
| 20260504200956 | 26 | 140 | 17.7 | 22.5 | 0.00 | 0.00 | 0.00 | 58 | 1010.0 |
| 20260504200453 | 27 | 187 | 12.9 | 16.1 | 0.00 | 0.00 | 0.00 | 58 | 1010.2 |
| 20260504195949 | 27 | 192 | 11.3 | 12.9 | 0.00 | 0.00 | 0.00 | 58 | 1010.4 |
| 20260504195445 | 26 | 105 | 11.3 | 16.1 | 0.00 | 0.00 | 0.00 | 59 | 1010.4 |
| 20260504194942 | 26 | 189 | 14.5 | 16.1 | 0.00 | 0.00 | 0.00 | 59 | 1010.7 |